Overview Statistics Trail Chart Weather Telemetry Raw packets
 

This is the latest recevied weather packets stored in our database for station/object IU5GBO-13. If no packets are shown the sender has not sent any weather packets the latest 10 day(s).

<< 26 27 28 29 30 31 32 >>
Time Temp. Humidity Pressure Rain* Wind** Luminosity Snow
1777671975 15° C 28% 1025.9 hPa - - - -
1777671374 15° C 29% 1025.9 hPa - - - -
1777670774 15° C 27% 1025.8 hPa - - - -
1777670174 15° C 27% 1025.7 hPa - - - -
1777669574 15° C 26% 1025.7 hPa - - - -
1777668975 15° C 28% 1025.5 hPa - - - -
1777668374 15.56° C 31% 1025.6 hPa - - - -
1777667775 15° C 30% 1025.8 hPa - - - -
1777667174 15.56° C 31% 1025.6 hPa - - - -
1777666575 15.56° C 30% 1025.4 hPa - - - -
1777665974 15.56° C 28% 1025.3 hPa - - - -
1777665375 16.11° C 26% 1025.3 hPa - - - -
1777664774 16.67° C 25% 1025 hPa - - - -
1777664174 16.67° C 25% 1024.8 hPa - - - -
1777663574 16.67° C 25% 1024.7 hPa - - - -
1777662974 17.22° C 25% 1024.6 hPa - - - -
1777662375 17.22° C 25% 1024.5 hPa - - - -
1777661774 17.78° C 25% 1024.2 hPa - - - -
1777661174 17.78° C 25% 1024 hPa - - - -
1777660575 18.33° C 24% 1023.9 hPa - - - -
1777659975 18.89° C 23% 1023.8 hPa - - - -
1777659374 18.89° C 23% 1023.8 hPa - - - -
1777658775 18.89° C 23% 1023.7 hPa - - - -
1777658174 18.89° C 22% 1023.3 hPa - - - -
1777657574 19.44° C 22% 1023.2 hPa - - - -

* Rain since midnight (hover to see other rain measurements)
** Current wind speed in m/s (hover to see current wind gust speed)